COSMOS 1924

Satellite information

Favourite Embed

Satellite Type and Status

PAYLOADIN ORBIT

Key statistics

Satellite COSMOS 1924 at a glance.

Uptime

13797

Days in orbit

Revolutions

≈ 12.4

Per day

Orbit

LEO

Low Earth Orbit

Inclination

74.0

Latest

Satellite identification and parameters

Extended collection of information and parameters for COSMOS 1924.

Object identification

Identified? True

Debris? False

Object name: COSMOS 1924

International designator: 1988-016A

Object number (NORAD): 18937

Object ID (CCSDS): 18937

Country: COMMONWEALTH OF INDEPENDENT STATES (CIS)

Current information (Y/N): Y

RCS size: MEDIUM

Orbital parameters

Period: 115.698 minutes

Inclination: 74.0065 deg

SMA: 7865.218 km

Apoapsis: 1514.898 km

Periapsis: 1459.268 km

RAAN: 6.6253 deg

Eccentricy: 0.00353642

Argument of periapsis: 304.7051 deg

Mean anomaly: 168.6081 deg

Mean motion: 12.44619573 rev/day

Mean motion (dot): -0.00000004 rev/day2

B* drag term: 0.000086053541 1/REarth

Two-line elements (TLE)

Creation date: Dec. 19, 2025, 2:08 a.m.

Reference frame: TEME

Reference center: EARTH

Epoch: Dec. 18, 2025, 6:26 p.m. UTC

TLE line 0: 0 COSMOS 1924

TLE line 1: 1 18937U 88016A 25352.76821972 -.00000004 00000-0 86054-4 0 9992

TLE line 2: 2 18937 74.0065 6.6253 0035364 304.7051 168.6081 12.44619573716225

Live tracking on map

Real-time ground track for satellite COSMOS 1924.

In-orbit conjunctions

A list of the most updated potential collisions computed for object COSMOS 1924.

Target Orbit TCA Probability of collision Miss distance Type
COSMOS 1288 LEO 2025-07-18 10:50:21 0.0001049104 309.0 (m) PAYLOAD

Associated space launch

Military communications satellites

COSMOS 1924 was lifted into orbit during the mission ‘Kosmos-3M | Strela-1M 329-336’, on board a Kosmos-3M space rocket.

The launch took place on March 11, 1988, 12:18 a.m. from 132/1 (132L).

For more information about the launch, click the button.

Launch to space Kosmos-3M | Strela-1M 329-336
Kosmos-3M | Strela-1M 329-336

Agency: N/A

Status: Launch Successful

Launch date: March 11, 1988, 12:18 a.m. UTC

Rocket: Kosmos-3M

Launch pad: 132/1 (132L)

Location: Plesetsk Cosmodrome, Russian Federation

...

Latest news about this satellite

There are no fresh news available about this satellite. Check back as we update our databases every day.


Newsletter sign-up

Weekly statistics, charts and insights to help you stay on top of the space industry.